IRIDIUM 22

Satellite information

Favourite Embed

Satellite Type and Status

PAYLOADIN ORBIT

Key statistics

Satellite IRIDIUM 22 at a glance.

Uptime

10293

Days in orbit

Revolutions

≈ 14.4

Per day

Orbit

LEO

Low Earth Orbit

Inclination

86.4

Latest

Satellite identification and parameters

Extended collection of information and parameters for IRIDIUM 22.

Object identification

Identified? True

Debris? False

Object name: IRIDIUM 22

International designator: 1997-043E

Object number (NORAD): 24907

Object ID (CCSDS): 24907

Country: UNITED STATES OF AMERICA (US)

Current information (Y/N): Y

RCS size: LARGE

Orbital parameters

Period: 100.274 minutes

Inclination: 86.3959 deg

SMA: 7149.667 km

Apoapsis: 772.945 km

Periapsis: 770.118 km

RAAN: 59.7481 deg

Eccentricy: 0.00019769

Argument of periapsis: 90.7579 deg

Mean anomaly: 269.3844 deg

Mean motion: 14.36064862 rev/day

Mean motion (dot): 0.00000622 rev/day2

B* drag term: 0.00020722338 1/REarth

Two-line elements (TLE)

Creation date: Oct. 25, 2025, 3:11 a.m.

Reference frame: TEME

Reference center: EARTH

Epoch: Oct. 24, 2025, 8:43 p.m. UTC

TLE line 0: 0 IRIDIUM 22

TLE line 1: 1 24907U 97043E 25297.86379496 .00000622 00000-0 20722-3 0 9998

TLE line 2: 2 24907 86.3959 59.7481 0001977 90.7579 269.3844 14.36064862475382

Live tracking on map

Real-time ground track for satellite IRIDIUM 22.

In-orbit conjunctions

There are no conjunctions computed for IRIDIUM 22, at the moment. Check back to stay up to date, as we update our databases every day.

Go to all conjunctions

Associated space launch

Iridium provides global mobile telecommunications services using a constellation of 66 low earth orbit satellites in a 86.4° inclined orbit. Although 77 satellites were originally envisioned for the system and spawned the name based on the 77th element in the periodic table, the system has been scaled back. Motorola's Satellite Communications Group designed and manufactured the Iridium satellites with Lockheed Martin providing the LM-700A spacecraft buses.

IRIDIUM 22 was lifted into orbit during the mission ‘Delta II | Iridium 22 to 26’, on board a Delta II space rocket.

The launch took place on Aug. 21, 1997, 12:38 a.m. from Space Launch Complex 2W.

For more information about the launch, click the button.

Launch to space Delta II | Iridium 22 to 26
Delta II | Iridium 22 to 26

Agency: N/A

Status: Launch Successful

Launch date: Aug. 21, 1997, 12:38 a.m. UTC

Rocket: Delta II

Launch pad: Space Launch Complex 2W

Location: Vandenberg SFB, CA, USA

...

Latest news about this satellite

There are no fresh news available about this satellite. Check back as we update our databases every day.


Newsletter sign-up

Weekly statistics, charts and insights to help you stay on top of the space industry.